Weather Roundup
Issued by NWS

Home | Current Version | Previous Version | Graphics & Text | Print | Product List | Glossary Off
Versions: 1 2 3 4 5 6 7 8 9 10 11 12 13 14 15 16 17 18 19 20 21 22 23 24 25 26 27 28 29 30 31 32 33 34 35 36 37 38 39 40 41 42 43 44 45 46 47 48 49 50

598
NZUS93 KARX 170359
HRRWXR

CURRENT HOURLY OBSERVATIONS ACROSS
MUCH OF THE UPPER MISSISSIPPI VALLEY
NATIONAL WEATHER SERVICE LA CROSSE WI
1000 PM CST TUE JAN 16 2018


...SOUTHEAST MINNESOTA...


CITY           SKY/WX    TMP DP  RH WIND       PRES   REMARKS
ROCHESTER      FAIR      -4  -6  91 W9        30.52F WCI -20
ROCHESTER/MAYO FAIR       0  -4  85 W6        30.54F WCI -12
WINONA         FAIR       1  -4  78 CALM      30.57F
AUSTIN         FAIR      -4  -8  84 CALM      30.54F
ALBERT LEA     FAIR      -2  -8  78 W5        30.55S WCI -12
DODGE CENTER   FAIR      -6  -9  84 SW9       30.51F WCI -22
PRESTON        FAIR      -4  -9  81 W7        30.53F WCI -18
OWATONNA       FAIR      -6  -9  84 S3        30.55S
FARIBAULT      FAIR      -6  -9  84 CALM      30.54F
$$

...ELSEWHERE IN MINNESOTA...


CITY           SKY/WX    TMP DP  RH WIND       PRES   REMARKS
MINNEAPOLIS    FAIR       1  -3  83 W8        30.55F WCI -13
INTNL FALLS    FAIR       7  -8  50 SW14      30.25F WCI -10
DULUTH         CLOUDY     4  -2  76 W14       30.35F WCI -14
RED WING       FAIR      -2  -9  71 CALM      30.56F
REDWOOD FALLS  CLOUDY     0  -4  83 SW8       30.52F WCI -14
MANKATO        FAIR      -3  -7  82 S5        30.56F WCI -13
WORTHINGTON    CLEAR     -1  -5  82 SW8       30.52F WCI -15
FAIRMONT       CLOUDY     0  -4  83 W6        30.56F WCI -12
$$

...SOUTHWEST WISCONSIN...


CITY           SKY/WX    TMP DP  RH WIND       PRES   REMARKS
LA CROSSE      FAIR       2  -4  76 W7        30.58F WCI -11
PRAIRIE DU CHI FAIR      -1  -6  78 W3        30.61S
BOSCOBEL       FAIR       4   0  83 SW7       30.60R WCI  -8
LONE ROCK      FAIR       4   2  91 W6        30.57S WCI  -7
PLATTEVILLE    FAIR       3   1  91 W6        30.56S WCI  -8
FORT MC COY    FAIR       4   1  88 CALM      30.56S
CAMP DOUGLAS   CLEAR      3   0  85 W6        30.51F WCI  -8
MAUSTON-NEW LI FAIR       5   2  86 NW6       30.52S WCI  -5
VIROQUA        FAIR       1  -1  94 W7        30.51S WCI -12
WIS DELLS      FAIR       7   3  86 CALM      30.51F
$$

...ELSEWHERE IN WISCONSIN...


CITY           SKY/WX    TMP DP  RH WIND       PRES   REMARKS
MILWAUKEE      FAIR      16  11  80 W6        30.51S WCI   7
MADISON        FAIR       9   4  80 CALM      30.52F
GREEN BAY      FAIR      10   5  80 W7        30.46F WCI  -1
EAU CLAIRE     NOT AVBL
BLACK RVR FLS  FAIR      -3  -7  80 SW3       30.54S
MEDFORD        FAIR       1  -2  86 W7        30.42S WCI -12
WAUSAU         FAIR       4   1  88 W8        30.43S WCI  -9
WIS RAPIDS     FAIR       5   0  79 W8        30.50F WCI  -8
MARSHFIELD     FAIR       1  -2  87 W8        30.45F WCI -13
RICE LAKE      FAIR       1  -4  79 CALM      30.50F
$$

...NORTHEAST IOWA...


CITY           SKY/WX    TMP DP  RH WIND       PRES   REMARKS
WATERLOO       FAIR      -1  -5  82 W5        30.62S WCI -11
DUBUQUE        FAIR      -1  -5  82 SW3       30.56S
DECORAH        FAIR       0  -4  85 W5        30.55S WCI -10
MASON CITY     CLOUDY    -3  -7  82 W6        30.59R WCI -15
CHARLES CITY   FAIR      -2  -4  92 W5        30.58F WCI -12
OELWEIN        MOCLDY     0  -2  92 W9        30.59S WCI -16
$$

...ELSEWHERE IN IOWA...


CITY           SKY/WX    TMP DP  RH WIND       PRES   REMARKS
DES MOINES     CLOUDY     0  -5  79 SW6       30.65F WCI -12
IOWA CITY      FAIR       2  -4  76 W7        30.66S WCI -11
FORT DODGE     CLOUDY    -6 -10  83 SW3       30.60F
MARSHALLTOWN   CLOUDY    -3  -7  82 W7        30.62F WCI -16
CEDAR RAPIDS   FAIR       0  -5  79 W10       30.61S WCI -16
$$

...NORTHERN ILLINOIS...


CITY           SKY/WX    TMP DP  RH WIND       PRES   REMARKS
CHICAGO-OHARE  FAIR      15   8  73 W9        30.53S WCI   3
CHICAGO-MIDWAY FAIR      16  10  77 NW8       30.53S WCI   5
MOLINE         FAIR       5   0  79 W7        30.63R WCI  -7
ROCKFORD       FAIR       8   2  76 NW5       30.58R WCI   0
PEORIA         FAIR       6   1  80 W5        30.63S WCI  -3
$$

NOTE: "FAIR" INDICATES FEW OR NO CLOUDS BELOW 12,000 FEET WITH NO
SIGNIFICANT WEATHER AND/OR OBSTRUCTIONS TO VISIBILITY. WIND
SPEEDS ARE IN MILES-PER-HOUR.




USA.gov is the U.S. government's official web portal to all federal, state and local government web resources and services.